Wind_Speed
41 42 42 43 44 44 44 44 45 45 46 47 47 48 50 51 52 53 54 55 56 57 58 58 58 59 59 61 61 61 61 62 62 61 62 63 64 64 65 65 66 66 67
41 42 43 44 44 44 44 44 45 46 47 48 48 49 50 51 52 53 54 54 55 57 58 58 58 59 59 60 60 60 61 62 63 62 61 62 63 64 65 65 65 66 67
42 43 44 44 44 44 44 45 45 46 48 48 49 50 51 51 52 53 53 53 54 55 56 57 58 58 58 59 60 59 60 61 62 62 61 62 63 64 64 64 64 64 64
42 43 43 44 44 44 45 46 46 47 48 49 49 50 51 52 52 53 54 54 54 54 55 56 57 58 58 58 59 59 59 60 60 61 61 60 62 63 64 63 62 61 61
42 42 43 44 44 45 46 47 47 47 48 49 50 50 51 52 52 53 54 54 55 55 55 54 55 56 56 56 56 57 57 58 57 58 59 58 59 60 62 62 61 59 58
42 42 43 43 44 45 46 46 47 47 48 49 50 50 51 51 51 52 53 53 54 54 54 54 54 54 54 54 54 54 55 56 56 56 57 57 56 58 59 60 60 59 58
41 42 42 43 44 45 46 47 47 48 48 49 50 50 50 51 51 51 51 52 52 51 52 52 52 53 53 53 53 53 53 54 54 54 54 55 55 55 56 57 57 58 57
42 42 43 44 44 45 46 47 48 48 48 48 49 49 50 50 50 50 50 50 49 49 50 50 51 51 51 52 52 53 53 53 53 53 52 53 54 54 55 56 56 57 56
42 43 44 44 45 46 46 47 47 48 48 47 48 48 49 49 50 50 50 49 48 49 49 50 50 50 51 51 51 51 51 52 52 53 53 53 53 53 54 54 55 56 55
43 44 44 45 45 46 46 47 47 47 47 47 47 47 47 48 48 49 49 49 48 48 48 49 50 50 50 50 49 49 50 51 51 52 52 51 51 52 53 53 54 54 53
43 44 45 45 46 46 47 47 47 47 47 47 47 47 47 46 47 47 47 48 48 47 47 48 49 49 49 49 49 49 49 49 50 49 50 50 50 50 51 53 53 53 52
44 45 45 46 46 46 46 46 46 46 46 46 46 46 46 46 46 46 46 46 46 46 46 46 47 48 48 48 48 48 48 48 48 49 49 49 49 49 49 50 50 50 50
44 44 45 45 45 45 45 45 45 45 45 45 45 46 46 45 45 45 46 45 45 45 45 45 45 46 46 47 48 48 48 48 48 48 48 48 48 48 47 47 48 48 47
43 43 44 44 44 44 43 43 43 44 44 44 45 45 45 44 44 45 45 45 45 46 45 45 44 44 45 45 46 46 46 46 46 46 46 45 45 45 44 44 44 44 44
42 43 43 43 42 42 42 42 42 43 43 44 43 43 43 43 43 44 44 44 45 45 45 44 44 44 44 44 45 45 45 45 45 45 44 43 42 42 42 41 41 41 42
41 41 41 41 41 41 41 42 42 43 43 43 43 43 42 42 42 43 43 43 43 44 44 44 44 44 44 44 44 44 45 45 45 44 43 42 41 40 40 40 39 39 39
40 39 39 39 40 40 40 41 41 41 42 42 42 42 42 42 42 42 42 42 42 42 42 43 43 42 42 42 43 43 43 44 44 43 42 41 40 39 39 38 38 38 37
38 38 39 39 40 40 40 40 40 40 40 41 41 42 42 42 42 42 42 41 41 41 42 42 41 40 40 41 41 41 41 42 41 41 41 40 39 38 37 36 36 36 35
38 39 40 40 41 41 41 40 40 40 39 39 40 41 41 41 41 41 41 40 39 39 39 39 39 38 38 38 39 39 38 38 38 39 38 37 36 36 35 35 35 34 34
40 40 40 40 40 40 40 40 40 40 40 39 39 40 40 40 39 39 39 38 38 37 37 36 36 37 37 36 37 37 36 36 36 35 35 35 34 34 34 33 33 33 33
40 41 41 41 40 40 40 40 40 39 39 39 39 39 38 38 37 37 36 36 35 35 35 34 34 35 35 35 34 34 34 33 33 32 32 32 33 33 32 31 32 32 32
41 41 41 40 40 39 39 40 39 39 38 38 37 37 37 36 35 35 34 34 34 34 33 32 32 32 33 32 32 31 31 30 30 30 30 30 30 30 30 30 30 30 30
40 40 39 39 39 39 39 39 38 38 37 37 36 35 35 35 34 34 33 33 33 33 32 31 31 31 31 31 30 29 29 28 28 28 28 27 27 27 27 28 29 29 29
39 38 38 39 39 38 38 37 37 36 36 35 34 34 33 33 33 32 32 31 31 31 31 30 30 30 30 29 29 28 27 27 26 26 26 26 26 26 26 26 26 27 28
38 37 37 37 37 36 36 35 35 35 34 34 33 33 32 32 31 31 30 30 30 30 29 29 29 28 28 28 27 26 26 25 25 25 25 25 25 25 25 25 26 26 26
36 36 35 35 35 34 34 34 34 33 33 33 32 32 31 30 30 29 29 29 28 28 27 27 27 27 27 26 25 25 24 24 24 24 24 24 24 23 23 24 24 24 24
Wind_Direction
275 275 276 276 276 277 276 276 276 275 275 276 276 277 276 275 275 275 275 276 275 275 275 275 275 274 273 271 271 271 270 270 269 267 266 265 265 264 263 263 263 263 262
276 277 277 277 277 277 276 277 277 277 276 276 277 278 278 277 277 277 277 276 276 276 275 275 274 274 273 272 271 272 271 271 270 269 267 266 265 265 264 264 263 263 263
276 277 278 277 277 277 277 278 278 278 278 278 278 279 279 278 278 277 278 278 278 277 277 276 275 274 273 273 272 272 272 271 271 270 268 267 266 265 264 264 263 264 263
277 278 278 278 277 278 279 279 279 279 279 279 279 280 280 279 279 279 278 279 279 279 278 277 276 274 274 274 273 272 272 271 271 270 270 269 267 265 265 264 263 264 264
278 279 279 279 279 279 280 280 280 281 281 281 281 281 281 280 281 280 280 280 279 279 278 278 277 275 275 275 275 273 273 272 271 271 270 270 268 266 265 264 264 263 263
280 280 280 280 280 280 281 282 282 282 282 282 282 282 282 281 282 283 283 282 281 279 278 277 277 276 276 276 276 275 274 273 272 272 271 270 269 267 266 265 265 264 263
282 281 281 281 281 282 282 282 283 283 283 283 283 283 282 282 282 283 283 283 282 281 279 278 277 276 275 275 275 275 274 274 274 273 272 271 271 270 268 266 266 265 265
283 282 282 283 283 283 283 283 283 283 283 283 284 284 284 283 283 283 283 283 283 281 280 279 278 277 276 276 276 275 274 274 274 273 273 272 272 271 269 267 266 266 265
283 283 283 283 284 284 284 284 284 283 283 283 284 284 284 284 284 283 283 283 283 282 281 279 279 279 277 277 277 275 273 272 272 273 274 273 273 272 271 269 268 267 266
284 284 284 284 284 285 285 285 285 285 284 284 284 284 284 284 284 284 283 283 283 282 281 280 280 279 279 277 277 277 275 273 274 274 274 273 273 273 272 271 269 268 267
285 285 285 285 285 285 285 286 285 285 285 284 284 284 284 285 284 284 284 284 283 283 282 282 281 280 278 277 277 277 276 276 275 274 274 273 273 274 272 271 270 270 268
285 286 286 286 286 286 286 286 286 285 285 284 285 285 285 286 286 286 286 285 285 285 284 283 282 281 279 277 277 277 277 276 275 275 275 275 274 274 273 271 270 269 268
286 287 287 287 287 287 286 286 285 285 285 285 285 285 286 286 287 287 287 286 286 286 285 284 283 282 280 278 277 277 276 276 276 276 276 276 276 274 273 271 269 268 267
288 288 289 289 288 288 287 287 286 286 286 286 286 286 287 287 287 287 287 286 286 285 285 285 284 283 282 280 278 277 276 276 276 276 276 276 275 275 274 272 270 268 267
289 289 289 289 288 288 288 288 287 287 287 287 287 287 287 287 287 287 287 286 286 285 285 284 283 283 282 282 280 278 277 277 277 277 277 276 275 275 273 273 271 269 267
290 290 290 290 290 289 289 289 289 289 288 288 288 288 288 288 289 290 289 288 287 286 286 285 284 283 282 281 280 279 278 277 277 277 276 275 275 274 273 272 271 270 268
291 291 291 291 292 292 291 291 291 290 290 289 289 289 289 290 291 291 291 290 288 288 287 287 286 284 283 282 281 280 278 277 277 277 276 275 274 272 271 271 271 270 269
291 291 292 293 293 293 293 292 292 291 291 290 290 290 290 291 291 292 292 291 291 290 289 288 287 286 285 284 283 281 280 278 277 276 275 274 272 271 270 270 270 269 268
291 292 293 294 294 294 293 293 293 293 292 291 291 291 292 292 293 293 293 293 292 292 291 289 288 287 287 286 285 283 282 280 277 275 274 272 271 270 270 271 270 269 267
292 293 294 294 295 294 294 293 294 293 293 293 292 292 292 293 293 293 293 293 293 293 292 291 290 289 289 289 287 285 283 281 279 276 274 272 270 269 270 270 270 269 268
292 293 294 294 294 294 294 294 294 294 294 294 293 293 293 293 293 293 293 293 294 294 294 293 292 292 291 291 289 287 284 281 278 276 275 272 270 269 268 268 269 269 269
293 294 294 294 294 294 294 294 294 294 294 294 294 293 294 293 293 293 293 293 294 294 294 293 294 294 293 293 291 289 286 282 279 277 274 272 271 269 268 268 267 267 268
295 294 294 293 293 293 294 294 294 294 294 294 294 293 293 293 293 293 293 294 295 295 294 294 294 294 294 294 292 291 288 285 280 277 274 272 271 270 269 269 268 267 266
296 295 294 294 293 293 294 294 294 294 294 294 294 293 293 294 294 294 293 293 295 296 295 295 295 295 295 294 293 291 290 287 282 277 274 273 272 271 270 270 269 268 267
298 296 295 294 293 293 294 295 295 294 294 294 294 293 293 293 294 294 293 294 295 296 296 296 296 296 296 295 293 291 290 288 284 279 276 274 272 271 270 269 270 270 268
300 298 296 295 294 294 295 295 295 295 294 294 293 293 293 292 293 293 293 293 294 295 296 297 297 297 297 295 293 291 289 287 284 280 278 275 273 272 271 270 269 269 268
Height
5609 5608 5607 5605 5604 5603 5602 5600 5599 5598 5597 5596 5594 5593 5592 5590 5589 5588 5587 5585 5584 5582 5580 5579 5578 5576 5575 5574 5573 5573 5572 5572 5573 5576 5576 5575 5575 5575 5575 5577 5578 5580 5582
5598 5597 5595 5594 5592 5591 5590 5588 5587 5586 5584 5583 5581 5580 5578 5576 5575 5573 5572 5570 5568 5566 5564 5562 5561 5559 5558 5557 5556 5555 5554 5553 5554 5556 5556 5556 5555 5555 5556 5557 5558 5560 5562
5587 5585 5584 5582 5581 5579 5578 5576 5575 5573 5571 5570 5568 5566 5564 5562 5560 5558 5556 5554 5551 5549 5547 5545 5543 5542 5541 5539 5538 5537 5536 5535 5534 5535 5537 5536 5536 5535 5536 5537 5539 5540 5542
5575 5574 5572 5570 5569 5567 5566 5564 5562 5560 5558 5556 5554 5552 5549 5547 5545 5542 5540 5538 5535 5533 5531 5528 5526 5525 5523 5522 5520 5519 5518 5517 5516 5516 5517 5517 5517 5516 5516 5518 5520 5521 5523
5564 5562 5560 5559 5557 5555 5553 5551 5549 5547 5545 5542 5540 5537 5535 5532 5529 5527 5525 5522 5520 5517 5515 5512 5510 5508 5506 5504 5503 5502 5500 5499 5499 5498 5499 5499 5499 5498 5498 5499 5502 5504 5505
5552 5550 5548 5547 5545 5543 5541 5538 5536 5534 5531 5529 5526 5523 5520 5517 5515 5511 5509 5506 5504 5501 5499 5497 5494 5492 5490 5488 5487 5485 5484 5483 5482 5481 5482 5482 5481 5481 5481 5481 5482 5485 5489
5540 5538 5537 5535 5532 5530 5528 5525 5523 5520 5517 5514 5512 5509 5506 5503 5500 5497 5493 5491 5488 5485 5483 5481 5479 5476 5474 5473 5471 5470 5468 5466 5465 5465 5465 5465 5465 5465 5465 5466 5465 5467 5470
5528 5526 5524 5522 5520 5517 5515 5512 5509 5506 5503 5501 5498 5495 5492 5488 5485 5482 5479 5476 5473 5470 5467 5465 5463 5461 5458 5457 5456 5454 5453 5451 5450 5450 5450 5449 5448 5447 5447 5448 5448 5450 5453
5517 5514 5512 5510 5507 5504 5502 5499 5496 5493 5490 5487 5484 5481 5478 5474 5471 5467 5464 5462 5459 5456 5453 5450 5448 5446 5444 5442 5441 5439 5438 5437 5435 5434 5433 5433 5432 5431 5430 5431 5432 5433 5436
5505 5502 5500 5497 5494 5491 5488 5485 5482 5479 5476 5473 5470 5467 5464 5460 5457 5453 5450 5448 5446 5443 5440 5437 5434 5432 5429 5427 5425 5424 5423 5422 5421 5420 5419 5418 5417 5416 5415 5414 5415 5416 5418
5493 5490 5487 5484 5482 5478 5475 5472 5469 5466 5463 5460 5457 5454 5450 5447 5443 5440 5436 5433 5431 5428 5426 5423 5420 5417 5415 5412 5411 5410 5408 5407 5406 5405 5404 5403 5402 5401 5400 5399 5399 5400 5401
5481 5478 5475 5472 5469 5465 5462 5459 5456 5453 5450 5447 5444 5440 5437 5433 5430 5426 5423 5419 5416 5414 5411 5409 5406 5403 5401 5399 5397 5395 5394 5392 5391 5391 5390 5389 5388 5387 5386 5385 5385 5385 5385
5468 5465 5462 5459 5456 5452 5449 5446 5443 5440 5437 5434 5431 5427 5424 5420 5417 5413 5410 5406 5403 5400 5397 5395 5392 5389 5387 5385 5383 5381 5380 5378 5377 5376 5376 5374 5373 5372 5371 5371 5371 5370 5371
5455 5452 5449 5446 5443 5439 5436 5433 5430 5427 5424 5421 5418 5414 5411 5407 5404 5400 5397 5393 5390 5387 5384 5381 5378 5376 5373 5371 5370 5368 5366 5364 5363 5362 5361 5360 5359 5358 5357 5356 5357 5357 5358
5443 5440 5437 5433 5430 5427 5424 5420 5417 5414 5411 5408 5405 5401 5398 5395 5391 5387 5383 5380 5377 5373 5370 5368 5365 5363 5360 5358 5356 5354 5352 5351 5350 5349 5347 5346 5345 5345 5344 5343 5343 5343 5344
5431 5428 5425 5422 5418 5415 5412 5408 5404 5401 5398 5394 5391 5388 5385 5382 5378 5374 5370 5366 5363 5360 5357 5354 5352 5349 5347 5345 5343 5341 5339 5337 5336 5334 5334 5333 5332 5332 5331 5331 5330 5331 5331
5419 5416 5413 5410 5407 5403 5400 5397 5393 5389 5385 5382 5379 5375 5372 5368 5365 5361 5357 5353 5350 5346 5344 5341 5338 5335 5333 5331 5329 5327 5326 5324 5322 5321 5320 5320 5319 5319 5319 5319 5319 5319 5319
5407 5404 5401 5398 5395 5391 5388 5385 5381 5378 5374 5370 5366 5363 5359 5355 5352 5348 5345 5341 5338 5334 5331 5328 5325 5322 5320 5318 5316 5314 5312 5311 5309 5308 5307 5307 5307 5307 5307 5307 5307 5307 5308
5396 5393 5390 5387 5383 5379 5376 5372 5369 5365 5362 5359 5355 5351 5347 5343 5340 5336 5332 5329 5326 5322 5319 5315 5313 5310 5308 5306 5304 5302 5300 5298 5297 5296 5295 5295 5295 5295 5296 5296 5296 5296 5296
5384 5381 5378 5375 5371 5367 5364 5361 5357 5354 5350 5347 5343 5340 5336 5332 5328 5325 5321 5317 5314 5311 5307 5304 5302 5299 5297 5294 5292 5290 5288 5287 5286 5285 5284 5284 5284 5285 5285 5285 5285 5285 5286
5372 5369 5366 5362 5359 5355 5352 5349 5345 5342 5338 5335 5331 5327 5324 5321 5317 5314 5310 5307 5303 5300 5297 5294 5291 5288 5285 5283 5281 5279 5277 5276 5275 5274 5274 5273 5274 5274 5274 5275 5275 5275 5275
5360 5357 5353 5350 5347 5343 5340 5337 5333 5330 5326 5323 5319 5316 5312 5309 5306 5303 5300 5297 5293 5290 5287 5284 5281 5278 5275 5273 5270 5268 5267 5265 5264 5264 5264 5263 5263 5264 5264 5265 5265 5265 5266
5348 5344 5341 5338 5334 5331 5328 5325 5321 5318 5314 5311 5308 5305 5302 5298 5295 5293 5290 5287 5284 5281 5277 5274 5272 5269 5266 5263 5261 5259 5257 5256 5255 5254 5254 5254 5254 5255 5255 5255 5255 5256 5256
5335 5332 5329 5326 5323 5319 5316 5313 5309 5306 5303 5300 5297 5294 5291 5288 5285 5282 5280 5277 5274 5271 5268 5265 5263 5260 5257 5255 5253 5250 5248 5247 5246 5245 5245 5245 5246 5246 5246 5247 5247 5247 5247
5323 5320 5317 5314 5311 5308 5304 5301 5298 5295 5292 5289 5286 5283 5280 5278 5275 5272 5270 5267 5265 5262 5259 5256 5254 5252 5249 5247 5244 5242 5240 5239 5237 5237 5237 5237 5237 5238 5238 5238 5238 5238 5238
5312 5308 5305 5302 5299 5296 5293 5290 5287 5284 5281 5278 5275 5273 5270 5268 5265 5263 5261 5258 5256 5254 5251 5248 5246 5243 5241 5239 5237 5235 5233 5231 5230 5229 5229 5229 5229 5229 5229 5229 5230 5230 5230